Regional Weather Roundup
Issued by NWS Goodland, KS

Home | Current Version | Previous Version | Graphics & Text | Print | Product List | Glossary On
Versions: 1 2 3 4 5 6 7 8 9 10 11 12 13 14 15 16 17 18 19 20 21 22 23 24 25 26 27 28 29 30 31 32 33 34 35 36 37 38 39 40 41 42 43 44 45 46 47 48 49 50
000
ASUS43 KGLD 231408
RWRGLD

GOODLAND FORECAST AREA HOURLY WEATHER ROUNDUP
NATIONAL WEATHER SERVICE GOODLAND KS
800 AM MDT WED JUL 23 2014

...OFFICIAL OBSERVATIONS...

CITY           SKY/WX    TMP DP  RH WIND       PRES   REMARKS
GOODLAND KS    CLOUDY    69  67  93 SE15      30.31R
HILL CITY KS   CLOUDY    73  66  78 NE13      30.25R
IMPERIAL NEB   CLOUDY    69  64  84 NE23G29   30.36R
MCCOOK NEB     SUNNY     69  64  84 E9        30.29R
AKRON CO       CLOUDY    67  65  93 SE14      30.34R FOG
BURLINGTON CO  CLOUDY    68  66  93 SE14      30.31S FOG
LIMON CO       SUNNY     69  61  75 S7        30.38R
$$

...UNOFFICIAL OBSERVATIONS...

CITY           SKY/WX    TMP DP  RH WIND       PRES   REMARKS
COLBY KS       CLOUDY    72  72 100 E8        30.29R
GOVE KS          N/A     74  32  21 MISG        N/A
LENORA KS        N/A     71  32  23 MISG        N/A
NORTON KS      SUNNY     73  61  64 E10       30.25F
OBERLIN KS     CLOUDY    70  64  83 E10       30.27R
SHARON SPRINGS   N/A     70  69  96 CALM        N/A
TRIBUNE KS     SUNNY     73  63  68 E10       30.29F
WAKEENEY KS      N/A     74  68  83 MISG        N/A
KIT CARSON CO    N/A     71  66  84 N9G20       N/A
WRAY CO          N/A     72  66  83 E10       30.33
YUMA CO          N/A     68  67  97 E9          N/A
$$


USA.gov is the U.S. government's official web portal to all federal, state and local government web resources and services.